User: anonymous   Login
Location: *
(10.4782°N, 67.2163°W)
Time: 09:16:52
(UTC+00:00)
Language:

COSMOS 2428 - Orbit

View from above orbital plane
View from above orbital plane
View from above satellite
View from above satellite

Ground track
Ground track

The orbit data is extracted from the following two-line orbital elements,

1 31792U 07029A   24196.88461539 -.00000156  00000-0 -58473-4 0  9991
2 31792  70.9383  28.6528 0009654 359.7273   0.3840 14.12706127878958
Epoch (UTC): 14 July 2024 21:13:50
Eccentricity: 0.0009654
inclination: 70.9383°
perigee height: 843 km
apogee height: 857 km
right ascension of ascending node: 28.6528°
argument of perigee: 359.7273°
revolutions per day: 14.12706127
mean anomaly at epoch: 0.3840°
orbit number at epoch: 87895

The dashed part of the orbit path shows where the satellite is in the earth's shadow,  

DLR